Regional Weather Roundup
Issued by NWS

Home | Current Version | Previous Version | Text Only | Print | Product List | Glossary On
Versions: 1 2 3 4 5 6 7 8 9 10 11 12 13 14 15 16 17 18 19 20 21 22 23 24 25 26 27 28 29 30 31 32 33 34 35 36 37 38 39 40 41 42 43 44 45 46 47 48 49 50
000
ASUS45 KCYS 301310
RWRWY

WYOMING REGIONAL WEATHER ROUNDUP
NATIONAL WEATHER SERVICE CHEYENNE WY
700 AM MDT FRI SEP 30 2016

NOTE:  "FAIR" INDICATES FEW OR NO CLOUDS BELOW 12,000 FEET
WITH NO SIGNIFICANT WEATHER AND/OR OBSTRUCTIONS TO VISIBILITY.

WYZ001-301400-
YELLOWSTONE NATIONAL PARK

CITY           SKY/WX    TMP DP  RH WIND       PRES   REMARKS
LK YELLOWSTONE   N/A     32  32 100 CALM      30.36R
W YELLOWSTONE  NOT AVBL

$$
WYZ002>013-054>058-071-098>099-301400-
NORTHERN WYOMING

CITY           SKY/WX    TMP DP  RH WIND       PRES   REMARKS
JACKSON        CLOUDY    45  45 100 CALM      30.32R FOG
CODY           FAIR      61  43  51 W6        30.16S
GREYBULL       FAIR      53  49  86 SE3       30.12R
WORLAND        FAIR      45  43  93 CALM      30.12S
SHERIDAN       FAIR      49  45  86 SW7       30.06S
BUFFALO        FAIR      58  41  53 NW12      30.11S
GILLETTE       FAIR      59  50  72 CALM      30.08S
HULETT         FAIR      64  45  48 W3        30.12R
NEWCASTLE      FAIR      55  43  62 S12       30.15F

$$
WYZ014>020-022>026-101>103-301400-
CENTRAL WYOMING

CITY           SKY/WX    TMP DP  RH WIND       PRES   REMARKS
BIG PINEY      FAIR      36  34  92 E3        30.34R
PINEDALE       FAIR      32  32 100 NW6       30.35S WCI  26
DUBOIS         FAIR      43  37  81 NW16      30.30S
LANDER         FAIR      48  43  82 NW6       30.21S
RIVERTON       FAIR      50  46  86 W9        30.22S
CASPER         FAIR      59  49  69 SW15      30.20S
DOUGLAS        CLOUDY    53  45  74 E3        30.18F

$$
WYZ021-027>030-104>119-301400-
SOUTHERN WYOMING

CITY           SKY/WX    TMP DP  RH WIND       PRES   REMARKS
EVANSTON       FAIR      47  40  76 S7        30.33S
FORT BRIDGER   FAIR      49  40  70 W9        30.35S
ROCK SPRINGS   FAIR      48  43  82 N6        30.32S
DIXON          CLOUDY    55  48  77 CALM      30.37S
RAWLINS        FAIR      51  45  79 SW6       30.32S
SARATOGA       DRIZZLE   50  50 100 SE7       30.36S
LARAMIE        CLOUDY    50  44  80 CALM      30.34R
CHEYENNE       MOCLDY    57  45  64 N3        30.26R
TORRINGTON     FAIR      47  41  80 E7        30.18R
PINE BLUFFS    FAIR      43  39  87 W8        30.23R

$$



USA.gov is the U.S. government's official web portal to all federal, state and local government web resources and services.